Wind_Speed
32 42 39 41 42 40 31 26 26 30 34 36 34 32 29 25 21 13 10 11 6 1 3 3 4 5 4 7 8 10 11 13 14 15 15 17 18 19 20 21 20 19 18 17 16 15 14 16 17
44 34 47 43 45 39 31 31 29 35 36 37 40 37 31 20 23 17 16 12 5 4 6 8 5 10 8 8 8 9 10 12 13 15 16 17 18 18 20 20 19 20 19 20 19 17 16 17 19
43 44 44 51 47 39 34 35 33 37 37 39 44 40 35 24 21 20 19 15 8 9 15 18 19 12 11 10 8 6 8 10 11 13 14 15 16 16 17 19 20 22 22 20 20 20 19 19 22
43 43 41 56 45 41 38 37 38 38 40 43 46 42 37 33 27 22 28 9 12 16 19 22 21 21 15 13 9 6 8 11 12 13 15 17 17 18 19 20 20 20 20 19 19 20 21 23 26
47 46 45 42 47 43 41 39 39 41 43 45 50 42 30 35 35 31 20 12 16 18 22 23 24 20 19 17 12 11 9 11 13 16 16 17 18 19 18 20 21 21 19 18 20 19 21 23 25
50 51 52 45 44 41 46 42 43 42 44 49 51 48 42 39 42 35 24 19 22 21 19 16 15 18 19 19 16 12 11 12 14 16 17 18 18 18 20 22 23 24 22 21 23 23 24 26 27
51 52 52 50 39 41 53 48 42 45 47 48 52 51 46 46 40 35 28 27 26 23 22 19 17 16 17 19 19 16 12 12 12 15 17 19 18 19 21 24 24 25 26 24 24 27 28 28 30
51 53 53 50 46 43 53 51 45 46 47 48 49 49 48 44 41 35 31 31 30 30 27 26 26 27 27 24 22 20 16 14 12 13 16 19 19 18 20 22 23 25 27 28 26 27 30 30 31
53 53 50 51 47 48 51 57 51 51 49 48 47 46 48 45 47 37 31 32 28 34 32 29 29 28 29 26 23 21 19 15 12 14 15 17 18 19 18 19 21 23 27 29 29 27 28 31 33
54 53 46 50 49 50 49 67 49 49 46 45 45 46 46 51 49 49 39 34 33 35 34 33 30 27 28 24 23 21 20 17 13 13 13 14 17 18 19 19 20 23 25 28 29 29 31 34 36
55 53 50 48 50 50 34 61 51 49 47 45 43 46 43 48 51 50 51 36 32 27 29 33 32 30 29 26 24 23 22 22 15 16 15 15 15 18 19 20 21 23 25 27 30 32 33 35 37
53 52 50 48 46 45 40 38 68 50 48 48 44 44 42 43 47 45 45 44 34 36 31 27 28 30 29 26 24 24 23 23 17 17 16 17 14 18 19 20 22 25 27 28 32 35 35 35 37
53 52 51 47 46 43 44 36 57 69 48 48 46 43 43 45 43 48 45 44 48 45 33 26 29 30 29 26 25 28 22 22 24 21 20 18 20 20 21 20 23 27 30 31 33 35 37 38 38
51 52 50 46 44 44 40 41 41 57 52 49 50 46 46 46 47 49 50 47 47 46 40 35 34 37 31 31 28 27 30 28 31 34 31 27 18 21 23 23 24 29 31 33 33 35 38 40 40
45 51 52 49 46 45 46 41 41 43 64 55 56 55 50 48 48 50 52 54 49 42 42 45 41 34 34 32 33 33 35 36 34 37 37 30 21 19 22 27 28 30 32 35 33 34 37 40 41
34 42 47 47 47 45 45 37 39 43 50 65 61 65 61 53 51 50 50 52 57 52 48 41 42 43 41 35 34 38 37 39 34 38 34 49 34 19 23 28 30 32 36 36 35 34 36 39 41
31 34 36 39 44 44 44 45 41 44 44 50 60 66 69 67 56 51 51 55 55 52 52 51 49 47 44 44 41 41 43 41 38 38 33 41 32 19 24 28 32 35 37 39 37 34 35 38 41
33 35 36 37 40 40 41 44 42 42 44 46 48 56 68 69 65 61 54 54 56 55 55 56 56 53 48 49 51 49 48 42 38 29 33 34 26 28 29 29 32 35 38 41 40 36 35 39 42
36 38 39 40 41 41 40 42 43 42 44 45 46 48 52 68 73 67 64 63 56 57 56 57 58 57 60 62 60 58 51 46 42 33 30 31 36 38 37 35 36 37 41 44 43 42 39 41 44
38 40 41 43 43 45 44 42 44 46 45 47 47 49 50 55 60 68 77 73 71 64 61 58 57 58 60 62 66 60 56 53 47 41 36 39 38 41 41 41 42 41 46 46 44 47 44 41 44
37 38 40 41 42 43 43 42 42 46 47 49 51 52 54 56 57 58 65 70 80 75 76 73 65 61 61 64 65 67 68 63 56 51 41 38 40 44 45 44 45 43 46 47 49 49 44 42 41
31 34 36 38 41 41 43 44 42 45 48 51 53 54 56 57 59 59 59 61 64 70 84 81 77 74 75 63 70 64 62 64 57 48 43 44 45 47 47 46 47 40 43 48 53 49 44 40 39
30 32 34 35 37 37 37 40 39 40 44 49 54 57 59 58 59 62 63 63 63 64 67 67 69 71 73 79 75 70 66 62 57 49 42 43 46 50 52 48 42 41 47 48 44 43 43 37 36
29 32 34 35 35 37 37 39 39 39 42 44 47 51 58 62 63 64 65 66 67 66 66 68 65 63 64 64 73 77 72 64 56 53 49 48 51 53 52 42 42 42 46 47 43 41 37 36 33
29 31 33 35 35 36 38 40 38 45 47 50 52 51 52 56 63 68 68 68 68 67 69 69 68 65 66 64 60 67 73 66 61 48 51 60 62 52 39 41 42 39 45 41 38 36 34 35 31
28 29 30 35 35 37 36 40 40 44 50 53 55 57 59 58 61 64 69 70 70 68 68 70 71 68 67 64 61 57 65 70 65 50 48 51 52 44 43 41 41 40 40 35 35 31 33 31 32
27 28 27 30 32 37 36 38 42 37 46 52 52 52 57 60 62 64 66 67 69 70 69 69 69 68 68 65 61 60 59 58 61 48 50 47 48 46 44 40 36 42 33 35 34 29 32 31 33
30 27 25 25 31 35 35 32 20 29 34 38 43 38 47 51 56 61 63 66 68 70 70 68 68 66 66 66 64 61 58 57 55 48 47 45 48 45 42 40 37 38 33 35 31 32 31 32 34
27 25 23 24 27 33 31 23 28 35 35 40 39 35 23 27 38 46 50 59 67 69 69 68 66 66 65 64 63 62 59 58 55 48 44 45 45 42 42 39 37 33 33 34 31 31 32 33 31
23 22 22 23 27 32 38 27 30 29 32 30 35 35 28 30 26 28 34 39 41 58 70 69 67 65 64 65 61 60 59 55 51 47 46 46 46 46 42 37 34 31 34 31 32 31 33 31 30
Wind_Direction
233 233 227 221 222 215 204 197 201 211 208 207 208 219 216 215 226 221 238 252 163 61 334 294 282 293 349 2 9 14 7 351 347 341 345 339 340 341 344 340 339 340 337 334 329 329 328 324 328
237 242 233 226 223 213 202 200 205 211 213 210 209 220 222 214 230 228 243 245 212 223 284 293 290 288 291 324 349 11 7 359 354 343 342 336 336 341 342 336 343 347 347 340 336 334 327 330 332
240 238 240 227 223 210 199 207 215 214 211 212 210 216 223 218 225 240 248 238 283 286 285 273 280 276 282 294 314 347 356 346 358 359 358 358 351 348 346 352 355 353 351 346 338 333 331 330 329
239 236 244 230 225 209 204 215 220 215 213 213 213 225 220 219 223 229 239 249 276 285 287 278 278 270 274 282 286 305 338 343 341 335 345 352 358 357 359 355 358 356 352 348 340 335 334 334 332
244 234 239 238 229 215 213 219 224 216 216 218 214 220 225 223 221 227 227 253 265 266 278 282 281 270 271 265 277 297 323 338 337 337 337 337 346 353 355 355 357 358 358 348 339 338 337 334 332
240 234 232 242 237 220 213 219 221 216 215 219 216 217 224 223 224 225 226 237 244 252 262 282 266 260 259 261 269 290 306 322 330 334 335 334 338 346 357 360 358 358 355 352 345 341 341 337 333
238 235 234 232 229 219 209 217 218 215 212 220 220 217 224 228 226 218 214 229 245 248 254 261 248 254 262 264 268 280 290 306 319 329 333 332 330 339 354 359 2 360 355 352 347 346 341 334 331
239 239 234 230 227 226 207 221 216 216 211 218 223 221 223 228 223 218 216 227 237 246 249 257 248 252 265 269 272 275 283 295 310 321 326 325 325 336 349 356 360 359 357 354 350 345 342 334 330
238 239 239 232 228 226 212 214 216 215 210 215 222 226 226 224 227 218 215 226 232 241 249 250 248 245 256 263 268 274 277 282 299 308 321 330 324 328 342 349 352 353 356 355 350 342 337 337 331
239 236 242 236 233 228 222 206 215 214 210 209 218 222 226 229 227 229 221 224 231 239 244 244 242 242 247 252 260 263 268 272 289 288 292 323 328 326 331 336 341 341 347 348 344 340 340 338 333
239 236 241 242 238 233 221 213 214 211 206 209 216 219 224 227 232 233 235 221 236 233 239 238 236 236 241 243 249 256 261 272 275 270 272 288 312 320 326 328 330 332 334 336 335 337 339 339 335
240 242 239 241 244 236 236 227 207 208 200 209 216 221 222 227 226 230 235 239 221 235 237 235 237 239 241 239 241 250 260 272 263 261 260 272 299 307 316 323 323 323 324 327 330 333 332 335 335
238 242 242 243 246 245 240 233 220 209 203 207 213 220 225 228 230 232 235 239 243 231 227 220 231 227 234 232 243 247 258 260 249 245 257 264 282 292 300 313 317 315 316 320 324 328 327 330 333
237 241 245 246 250 253 243 226 223 209 212 204 212 214 222 227 229 232 231 231 234 233 224 222 224 236 240 243 257 259 254 257 259 259 263 254 275 286 298 303 309 307 309 313 318 323 324 325 329
239 238 241 244 247 249 249 232 222 220 221 209 209 215 215 222 228 232 231 229 223 223 228 229 229 235 244 251 256 266 255 255 259 260 262 249 262 283 299 296 298 300 301 308 310 315 318 321 325
242 241 238 239 244 246 250 232 240 237 232 220 212 213 218 217 223 230 235 238 237 235 226 231 232 234 241 253 259 263 251 253 259 268 280 264 276 284 294 298 296 297 300 299 302 308 311 316 320
243 246 244 244 244 244 248 246 241 242 238 232 222 220 219 221 220 223 232 236 238 244 246 244 242 248 251 257 255 253 248 256 268 264 273 274 274 299 295 298 297 297 295 295 297 304 305 312 315
244 245 245 245 246 245 248 247 246 246 243 239 238 229 220 224 222 224 228 234 237 240 242 247 249 245 246 253 253 256 254 258 259 269 271 272 292 290 289 294 293 290 292 290 293 296 302 307 309
247 249 250 250 250 248 244 247 248 245 244 241 240 240 242 232 224 229 229 231 234 234 239 242 244 249 251 250 247 250 253 257 256 258 264 271 277 282 285 286 287 296 295 290 291 293 299 301 304
245 247 249 251 253 252 250 245 248 250 246 245 241 239 236 239 245 238 232 233 231 234 237 239 243 247 249 252 249 248 251 251 252 250 260 267 271 275 276 279 283 293 296 288 290 293 296 297 299
248 249 249 250 251 254 254 250 250 252 252 248 248 242 239 235 236 242 243 243 234 236 236 240 240 244 250 253 249 254 255 250 250 248 250 264 265 269 272 277 282 287 296 286 285 288 293 295 299
254 253 254 255 255 253 255 253 249 253 255 255 254 251 246 242 240 237 240 242 244 244 240 237 239 241 243 251 258 253 253 259 252 251 254 260 260 264 267 273 281 287 290 281 281 288 288 292 297
257 258 257 257 259 260 260 259 250 247 250 255 256 256 254 248 245 243 238 238 238 239 244 246 249 245 249 248 250 255 254 255 254 255 259 256 259 265 270 278 273 287 280 284 288 286 287 290 292
258 258 260 261 262 263 265 265 263 264 261 258 254 251 253 253 249 244 242 239 236 236 237 240 244 246 251 251 246 252 255 255 257 259 261 263 263 266 278 268 272 281 280 284 285 288 287 283 287
259 261 262 262 263 266 268 266 270 273 274 269 265 260 255 252 252 251 246 242 240 236 235 238 240 240 243 247 250 249 248 255 258 263 269 271 269 274 268 266 272 279 276 282 283 283 281 281 288
259 261 266 270 271 271 274 273 271 279 280 277 273 268 261 255 251 249 249 247 243 241 238 236 236 240 241 241 243 245 246 250 258 262 261 261 266 266 261 267 276 273 275 277 278 279 278 282 287
257 263 271 277 280 281 284 285 283 295 287 282 279 272 267 262 253 249 247 247 246 243 240 238 237 236 240 243 242 244 247 248 252 253 256 257 261 261 262 271 271 270 272 274 276 277 277 283 287
263 270 275 281 288 292 293 295 309 309 298 283 277 268 262 260 259 254 247 244 244 243 242 240 238 236 237 239 241 242 243 246 248 246 249 254 256 259 263 266 267 271 271 274 273 275 280 282 287
261 268 276 283 291 298 296 294 298 300 292 267 265 257 273 261 264 261 253 248 242 241 241 239 238 237 235 237 238 240 242 244 247 247 247 251 254 255 258 263 263 266 267 269 271 275 277 283 283
247 259 274 286 294 302 302 305 306 303 291 274 266 257 263 261 258 266 266 252 249 243 236 238 235 234 233 232 234 236 238 241 244 246 247 248 249 251 254 257 261 259 261 265 268 271 278 279 278
Height
5837 5842 5846 5850 5855 5860 5868 5873 5871 5871 5869 5869 5869 5870 5872 5877 5881 5888 5886 5887 5888 5890 5891 5893 5894 5896 5895 5894 5892 5891 5890 5891 5891 5892 5891 5890 5890 5889 5888 5887 5885 5882 5881 5880 5878 5875 5874 5872 5870
5830 5834 5838 5842 5846 5857 5866 5867 5865 5863 5864 5867 5866 5866 5870 5878 5879 5882 5886 5885 5887 5890 5891 5892 5893 5894 5895 5894 5893 5891 5890 5891 5891 5890 5890 5889 5888 5886 5885 5885 5884 5881 5879 5877 5875 5874 5873 5870 5869
5822 5826 5831 5833 5839 5854 5861 5861 5861 5859 5861 5861 5863 5865 5868 5876 5878 5880 5882 5882 5885 5888 5890 5890 5891 5892 5893 5894 5893 5892 5891 5891 5890 5890 5889 5888 5887 5886 5886 5884 5881 5880 5878 5876 5874 5872 5871 5869 5867
5815 5818 5823 5827 5835 5848 5853 5852 5853 5856 5857 5856 5858 5859 5866 5871 5873 5876 5877 5878 5882 5885 5887 5888 5889 5890 5891 5892 5892 5892 5891 5891 5891 5891 5890 5889 5887 5886 5884 5882 5880 5879 5878 5875 5873 5872 5870 5867 5865
5806 5810 5815 5819 5830 5838 5841 5845 5846 5850 5851 5851 5853 5856 5864 5866 5868 5870 5872 5876 5879 5882 5884 5885 5886 5887 5889 5890 5891 5891 5890 5890 5890 5889 5887 5887 5886 5885 5884 5883 5881 5879 5876 5875 5873 5870 5868 5866 5864
5799 5802 5805 5813 5825 5827 5831 5833 5836 5843 5845 5844 5848 5853 5852 5856 5860 5865 5868 5871 5875 5878 5880 5882 5884 5885 5886 5887 5889 5890 5889 5889 5889 5888 5887 5886 5885 5884 5882 5880 5879 5877 5875 5873 5872 5870 5867 5864 5861
5789 5794 5798 5806 5814 5815 5822 5825 5829 5834 5838 5839 5841 5847 5850 5852 5855 5860 5865 5867 5870 5873 5876 5879 5881 5882 5883 5884 5886 5888 5887 5887 5887 5886 5886 5885 5884 5882 5880 5879 5877 5875 5874 5872 5869 5866 5865 5861 5858
5781 5784 5789 5797 5804 5806 5813 5818 5821 5827 5832 5832 5835 5840 5844 5847 5850 5853 5860 5863 5866 5868 5872 5875 5878 5879 5881 5881 5883 5884 5885 5885 5886 5885 5884 5883 5882 5880 5878 5877 5876 5875 5871 5869 5867 5864 5862 5860 5855
5772 5775 5782 5789 5793 5795 5801 5808 5812 5817 5823 5825 5829 5834 5839 5841 5845 5847 5852 5857 5861 5864 5867 5870 5872 5875 5877 5879 5880 5882 5883 5884 5885 5884 5883 5882 5881 5879 5877 5875 5874 5873 5869 5866 5864 5862 5860 5857 5853
5763 5768 5775 5781 5783 5782 5796 5800 5805 5812 5818 5819 5822 5826 5831 5834 5837 5841 5845 5850 5854 5858 5861 5864 5867 5871 5874 5876 5877 5878 5879 5880 5881 5881 5881 5880 5879 5877 5875 5874 5872 5870 5868 5866 5864 5861 5858 5854 5850
5757 5762 5767 5767 5770 5778 5781 5787 5795 5802 5813 5815 5817 5821 5823 5827 5832 5836 5839 5844 5849 5852 5855 5858 5861 5865 5868 5872 5873 5874 5876 5877 5877 5878 5878 5877 5876 5875 5873 5871 5869 5867 5866 5864 5861 5858 5855 5851 5847
5749 5753 5757 5758 5762 5772 5775 5778 5784 5794 5806 5807 5810 5814 5817 5820 5826 5831 5833 5838 5842 5845 5849 5853 5856 5859 5862 5866 5868 5870 5872 5873 5873 5873 5874 5874 5873 5872 5871 5868 5867 5865 5864 5862 5859 5855 5852 5848 5844
5741 5745 5746 5751 5757 5762 5767 5771 5775 5788 5792 5798 5802 5805 5809 5813 5817 5823 5828 5832 5834 5836 5842 5847 5849 5852 5856 5858 5862 5865 5867 5869 5868 5868 5870 5869 5870 5869 5867 5865 5863 5862 5860 5859 5855 5852 5849 5844 5840
5733 5738 5740 5746 5750 5754 5757 5762 5770 5786 5780 5786 5792 5795 5800 5803 5807 5812 5818 5822 5824 5829 5832 5838 5841 5844 5848 5852 5855 5858 5862 5862 5863 5863 5863 5864 5863 5864 5863 5861 5859 5858 5856 5854 5851 5848 5845 5840 5836
5724 5729 5732 5738 5742 5744 5747 5756 5765 5770 5763 5771 5779 5785 5788 5791 5796 5802 5807 5811 5817 5822 5825 5828 5833 5836 5841 5844 5847 5850 5854 5855 5856 5857 5856 5857 5856 5858 5858 5857 5856 5853 5851 5850 5847 5843 5840 5836 5831
5718 5722 5724 5730 5733 5738 5739 5754 5753 5754 5757 5766 5769 5771 5778 5783 5786 5792 5798 5803 5807 5810 5813 5817 5822 5828 5832 5835 5838 5843 5845 5848 5850 5851 5852 5849 5847 5851 5852 5852 5851 5848 5846 5844 5841 5838 5835 5831 5826
5712 5714 5719 5723 5724 5730 5734 5738 5744 5747 5751 5755 5760 5765 5768 5773 5778 5781 5787 5793 5798 5804 5807 5810 5813 5818 5823 5826 5830 5834 5836 5839 5841 5842 5844 5841 5842 5845 5845 5846 5846 5842 5840 5838 5835 5833 5830 5826 5821
5705 5708 5712 5716 5718 5722 5725 5729 5734 5739 5742 5746 5749 5753 5760 5765 5767 5771 5776 5781 5786 5792 5797 5801 5805 5809 5813 5816 5819 5825 5829 5831 5834 5836 5836 5835 5833 5838 5840 5839 5840 5836 5834 5831 5829 5828 5824 5820 5815
5698 5700 5704 5707 5708 5712 5718 5721 5724 5729 5731 5736 5742 5746 5749 5753 5757 5760 5764 5770 5776 5780 5786 5790 5794 5798 5800 5806 5810 5813 5817 5822 5827 5828 5829 5830 5832 5833 5833 5833 5832 5831 5828 5824 5823 5820 5818 5814 5808
5692 5693 5695 5697 5698 5701 5707 5713 5715 5716 5721 5724 5730 5734 5740 5744 5744 5747 5750 5756 5762 5769 5774 5779 5783 5786 5790 5794 5799 5803 5807 5810 5817 5819 5822 5826 5826 5826 5825 5826 5825 5822 5820 5817 5815 5812 5811 5807 5801
5684 5686 5687 5689 5691 5693 5695 5701 5704 5706 5709 5713 5714 5719 5724 5729 5735 5736 5739 5743 5748 5753 5758 5765 5769 5773 5777 5781 5786 5792 5796 5799 5805 5809 5815 5818 5818 5816 5817 5818 5817 5814 5812 5809 5807 5803 5803 5800 5795
5677 5678 5679 5679 5681 5685 5687 5689 5697 5697 5697 5698 5700 5704 5710 5715 5720 5726 5728 5731 5735 5740 5746 5750 5756 5761 5766 5770 5772 5779 5785 5791 5797 5801 5807 5809 5808 5808 5808 5809 5807 5805 5803 5801 5797 5796 5794 5792 5788
5670 5669 5670 5671 5672 5673 5675 5677 5685 5689 5688 5686 5687 5689 5694 5700 5705 5710 5715 5718 5723 5726 5730 5735 5740 5748 5752 5757 5762 5765 5773 5779 5787 5793 5797 5799 5799 5797 5798 5800 5797 5795 5793 5792 5791 5789 5786 5784 5782
5661 5661 5661 5663 5664 5665 5666 5667 5674 5674 5673 5675 5675 5677 5679 5680 5686 5690 5695 5701 5707 5713 5717 5721 5726 5734 5737 5742 5750 5754 5759 5767 5773 5781 5786 5790 5787 5786 5789 5788 5786 5785 5786 5784 5783 5781 5778 5776 5775
5652 5653 5653 5654 5655 5656 5656 5660 5666 5657 5656 5655 5656 5661 5666 5667 5668 5670 5675 5682 5689 5697 5702 5707 5712 5721 5725 5732 5737 5741 5748 5754 5760 5770 5773 5774 5775 5777 5780 5776 5776 5778 5777 5777 5774 5772 5771 5770 5768
5644 5645 5645 5643 5645 5646 5646 5649 5653 5648 5640 5639 5639 5641 5646 5651 5652 5654 5657 5663 5672 5680 5685 5692 5698 5708 5712 5719 5727 5731 5737 5743 5749 5759 5762 5762 5763 5767 5767 5766 5768 5770 5769 5768 5766 5765 5764 5763 5762
5636 5637 5637 5635 5634 5633 5635 5638 5642 5636 5629 5624 5621 5624 5625 5628 5631 5634 5639 5648 5656 5662 5668 5675 5684 5695 5701 5706 5713 5720 5725 5732 5739 5750 5749 5750 5752 5755 5756 5757 5761 5761 5761 5760 5759 5758 5756 5756 5755
5626 5628 5629 5628 5625 5624 5626 5626 5626 5625 5620 5612 5609 5606 5608 5608 5609 5614 5624 5631 5636 5642 5651 5661 5669 5680 5688 5696 5703 5709 5717 5723 5729 5736 5738 5740 5743 5746 5747 5749 5751 5752 5753 5752 5751 5751 5750 5749 5748
5619 5619 5620 5620 5620 5616 5614 5619 5617 5613 5606 5603 5600 5598 5598 5598 5598 5601 5607 5611 5617 5624 5633 5644 5654 5665 5675 5683 5693 5700 5707 5713 5719 5723 5727 5730 5734 5737 5738 5741 5742 5744 5745 5744 5744 5743 5744 5743 5742
5612 5613 5613 5612 5612 5608 5605 5609 5605 5601 5595 5590 5591 5591 5591 5588 5590 5593 5593 5596 5599 5605 5613 5625 5636 5649 5660 5670 5679 5688 5695 5701 5707 5712 5717 5720 5724 5727 5730 5733 5735 5737 5738 5736 5736 5737 5737 5736 5736